Overview Statistics Trail Chart Weather Telemetry Raw packets
 

This is the latest recevied weather packets stored in our database for station/object KK6MIG-13. If no packets are shown the sender has not sent any weather packets the latest 10 day(s).

<< 521 522 523 524 525 526 527 >>
Time Temp. Humidity Pressure Rain* Wind** Luminosity Snow
1787796624 17.78° C 5% 1012.5 hPa 0 mm - 53 W/m² -
1787796564 17.78° C 5% 1012.5 hPa 0 mm - 54 W/m² -
1787796504 17.78° C 7% 1012.5 hPa 0 mm - 56 W/m² -
1787796440 17.78° C 8% 1012.5 hPa 0 mm - 60 W/m² -
1787796380 17.78° C 9% 1012.5 hPa 0 mm - 65 W/m² -
1787796325 17.78° C 10% 1012.5 hPa 0 mm - 67 W/m² -
1787796261 17.78° C 6% 1012.6 hPa 0 mm - 69 W/m² -
1787796201 17.78° C 7% 1012.5 hPa 0 mm - 72 W/m² -
1787796140 17.78° C 8% 1012.6 hPa 0 mm - 74 W/m² -
1787796081 17.78° C 8% 1012.6 hPa 0 mm - 77 W/m² -
1787796021 17.78° C 9% 1012.5 hPa 0 mm - 83 W/m² -
1787795959 17.78° C 10% 1012.5 hPa 0 mm - 84 W/m² -
1787795898 17.78° C 11% 1012.5 hPa 0 mm - 88 W/m² -
1787795838 17.78° C 11% 1012.5 hPa 0 mm - 90 W/m² -
1787795779 17.78° C 13% 1012.5 hPa 0 mm - 93 W/m² -
1787795719 17.78° C 14% 1012.4 hPa 0 mm - 97 W/m² -
1787795662 17.78° C 15% 1012.5 hPa 0 mm - 104 W/m² -
1787795598 17.78° C 18% 1012.4 hPa 0 mm - 105 W/m² -
1787795539 17.78° C 16% 1012.4 hPa 0 mm - 111 W/m² -
1787795477 17.78° C 14% 1012.4 hPa 0 mm - 114 W/m² -
1787795416 17.78° C 14% 1012.4 hPa 0 mm - 118 W/m² -
1787795374 17.78° C 13% 1012.4 hPa 0 mm - 128 W/m² -
1787795369 17.78° C 14% 1012.3 hPa 0 mm - 132 W/m² -
1787795365 17.78° C 14% 1012.5 hPa 0 mm - 125 W/m² -
1787795176 17.78° C 15% 1012.4 hPa 0 mm - 135 W/m² -

* Rain latest hour (hover to see other rain measurements)
** Current wind speed in m/s (hover to see current wind gust speed)